OBJECT E, 63295

Orbit data source: Space-Track

You're viewing an Uncataloged Satellite

Recently launched and/or uncataloged satellites may have evolving metadata. Metadata may include but not limited to: Owner, Maufacturer, Bus, Motor, and Mission.

OBJECT E, 63295 is a satellite owned by Yunyao yuhang (CN) in SSO that was launched on Mon, 17 Mar 2025 UTC via a GUSHENXING 1 launch vehicle from the Jiuquan Satellite Launch Center, China (JSC). Unknown objects in Earth's orbit typically refer to objects detected orbiting the Earth but have not yet been identified or cataloged. These objects could be anything from previously untracked satellites, spent rocket stages, debris from satellite collisions, or even natural meteoroids temporarily captured by Earth's gravity.

Loading next visibility...
Identifier
63295, 2025-055E
Orbit
SSO
Last TLE update
8 hours ago
Origin
Flag of CNYYAO (CN / PRC)
Manufacturer
Changguang WJ
Mission
Operational Commercial Meteo Radio Occ.
Bus & Motor
YY-1, Unknown motor
Mass
~50 kg wet, ~50 kg dry
Launch date (UTC)
2025-03-17 (2 months ago)
Launch vehicle
GUSHENXING 1
Launch site
Jiuquan Satellite Launch Center, China (JSC)
Object type
Unknown
Shape & HBR
Box + 1 Pan, 5 m
Radar Cross Section
5.339 m², Medium (>0.1 m² and < 1m²)

Expand to show TLE details & history

TLE from 8 hours ago
0 OBJECT E
1 63295U 25055E   25128.92159034  .00011228  00000-0  67334-3 0  9993
2 63295  97.6047 263.9464 0013935 112.4465 247.8242 15.11043143  7906
Epoch: 2025-05-08T22:07Z
Definitive object data (Epoch: 2025-05-08T22:07:05.405Z)
Latitude
-0.00002°
Longitude
65.18874°
Altitude
539.737 km
Speed
7.591 km/s
True Right ascension
17h 35m 47s
True Declination
0° 00' 00"
Sunlit
Object was in full shadow at TLE epoch
Visualization TLE readout
Latitude
-82.42912°
Longitude
158.01645°
Altitude
570.32 km
Speed
7.57 km/s
Apparent Right ascension
01h 29m 55s
Apparent Declination
-62° 25' 58"
Sunlit
Object is in daylight
Visualization observer readout
Local Sidereal Time
13:48:34
Azimuth
174.403° S
Elevation
-67.308°
Doppler factor
1
Orbital elements
Apogee altitude
539.63 km
Perigee altitude
520.377 km
Semi-major axis
6,908.141 km
Eccentricity
0.0013935
Inclination
97.6047°
RAAN
263.9464°
Arg. of periapsis
112.4465°
True anomaly
247.67643°
Mean anomaly
247.8242°
Eccentric anomaly
247.7503°
Mean motion
3.78008 °/min
BSTAR
0.00067334
Orbital period
95.24 mins
Loading maneuver chart data...
Loading SW <> Apogee altitude chart data...
Loading historical data...
Loading historical data...
Loading historical data...
Loading historical data...
Loading historical data...
Loading historical data...
Loading historical data...

OBJECT E Visibility forecast

Observer location: undefined°, undefined°

Span
Click to sort rows by Start time (UTC) header in descending order
Start Az.
Max El. time (UTC)
Max El. Az.
Max El.
End time (UTC)
End Az.
5 mins2025-05-09 09:22:51.979Z197.408° SSW2025-05-09 09:24:51.979Z252.091° W35.146°2025-05-09 09:27:51.979Z330.01° NNW
4 mins2025-05-09 20:57:51.979Z64.359° ENE2025-05-09 20:59:51.979Z103.757° ESE17.114°2025-05-09 21:01:51.979Z136.817° SSE
5 mins2025-05-09 22:31:51.979Z334.092° NNW2025-05-09 22:33:51.979Z287.302° WNW24.831°2025-05-09 22:36:51.979Z231.552° WSW
|